AirNav   Everest Fuels
 
 991 users online  

0PA0 Richfield Station Heliport
Richfield, Pennsylvania, USA

GOING TO RICHFIELD?


FAA INFORMATION EFFECTIVE 18 JUNE 2020

Location

FAA Identifier: 0PA0
Lat/Long: 40-41-03.4900N 077-07-35.1500W
40-41.058167N 077-07.585833W
40.6843028,-77.1264306
(estimated)
Elevation: 674 ft. / 205 m (estimated)
From city: 1 mile SW of RICHFIELD, PA
Time zone: UTC -4 (UTC -5 during Standard Time)
Zip code: 17086

Heliport Operations

Heliport use: Private use. Permission required prior to landing
Activation date: 08/2018
Control tower: no
ARTCC: NEW YORK CENTER
FSS: WILLIAMSPORT FLIGHT SERVICE STATION
Attendance: 
Segmented circle: no

Heliport Communications

WX ASOS at SEG (14 nm NE): 123.975 (570-374-4099)

Nearby radio navigation aids

VOR radial/distance  VOR name  Freq  Var
SEGr248/12.7SELINSGROVE VOR/DME110.4008W
HARr004/23.1HARRISBURG VORTAC112.5010W
RAVr299/25.3RAVINE VORTAC114.6011W
MIPr235/29.2MILTON VORTAC109.2009W

 
NDB name  Hdg/Dist  Freq  Var  ID
BELLGROVE310/30.132810WBZJ -... --.. .---

Heliport Services

Runway Information

Helipad H1

Dimensions: 44 x 44 ft. / 13 x 13 m
Surface: asphalt, in fair condition
Latitude: 40-41.058167N
Longitude: 077-07.585833W
Elevation: 674.0 ft.
Traffic pattern: leftleft

Heliport Ownership and Management from official FAA records

Ownership: Privately-owned
Owner: RICHFIELD AMBULANCE LEAGUE
P.O. BOX 236
RICHFIELD, PA 17086
Phone 717-694-3800
Manager: JASON SHEAFFER
P.O. BOX 236
RICHFIELD, PA 17086
Phone 570-765-5239

Additional Remarks

FOR CD CTC HARRISBURG APCH AT 800-932-0712

Instrument Procedures

There are no published instrument procedures at 0PA0.

Some nearby airports with instrument procedures:

P34 - Mifflintown Airport (14 nm W)
KSEG - Penn Valley Airport (14 nm NE)
KRVL - Mifflin County Airport (23 nm W)
74N - Bendigo Airport (27 nm E)
8N8 - Danville Airport (27 nm NE)
 
Loc | Ops | Rwys | IFR | FBO | Links
Com | Nav | Svcs | Stats | Notes
Aerial photo
No photo
 
Airport distance calculator
Flying to Richfield Station Heliport? Find the distance to fly.

From to 0PA0

Sunrise and sunset
Times for 11-Jul-2020
 Local
(UTC-4)
 Zulu
(UTC)
Morning civil twilight05:1609:16
Sunrise05:4909:49
Sunset20:3900:39
Evening civil twilight21:1201:12

Current date and time
Zulu (UTC)  11-Jul-2020 17:58:01
Local (UTC-4)  11-Jul-2020 13:58:01
 
METAR
KSEG 
14nm NE 
111753Z AUTO VRB05KT 10SM FEW018 SCT029 BKN055 27/23 A2967 RMK AO2 RAE02 SLP044 P0000 60024 T02670228 10283 20222 58012
KRVL 
23nm W 
111755Z AUTO 22011KT 10SM SCT030 BKN038 BKN043 26/21 A2970 RMK AO2
TAF
KMDT 
33nm SE 
111315Z 1113/1212 00000KT P6SM VCFG FEW030 SCT090 BKN250 FM111400 25006KT P6SM BKN050 FM111800 27014G21KT P6SM VCTS BKN050CB FM112300 28010KT P6SM SCT050
KUNV 
34nm W 
111315Z 1113/1212 24005KT P6SM SCT024 OVC035 FM111400 24015G22KT P6SM VCSH OVC025 FM112200 27012G20KT P6SM BKN050
KIPT 
35nm N 
111315Z 1113/1212 00000KT P6SM BKN014 OVC022 FM111800 24012G20KT P6SM VCTS OVC025CB FM120100 28008KT P6SM BKN050
NOTAMs
Click for the latest NOTAMs
NOTAMs are issued by the DoD/FAA and will open in a separate window not controlled by AirNav.

 

 
 

Would you like to see your business listed on this page?

 If your business provides an interesting product or service to pilots, flight crews, aircraft, or users of the Richfield Station Heliport, you should consider listing it here.  To start the listing process, click on the button below
 
Add a business
 

Other Pages about Richfield Station Heliport

Update a link
 
Copyright © AirNav, LLC. All rights reserved. Privacy Policy  Contact